Stations météo

réclame
Mon MeteoGroup
Schleswig-Jagel, Allemagne (10037): Température de l'air & dewpoint: 19.09.2018 09:00:00 - 25.09.2018 09:00:00 (CEST)Schleswig-Jagel, Allemagne (10037): Vitesse du vent & gusts: 19.09.2018 09:00:00 - 25.09.2018 09:00:00 (CEST)Schleswig-Jagel, Allemagne (10037): Direction du vent: 19.09.2018 09:00:00 - 25.09.2018 09:00:00 (CEST)Schleswig-Jagel, Allemagne (10037): reduced air pressure: 19.09.2018 09:00:00 - 25.09.2018 09:00:00 (CEST)Schleswig-Jagel, Allemagne (10037): visibility: 19.09.2018 09:00:00 - 25.09.2018 09:00:00 (CEST)
Date & Time tt [°C] td [°C] ff [km/h] ff [knt] fx [km/h] fx [knt] dd ppp [hPa] vv [km]
25.09.2018 09:00:00 5,6 3,2 7 4 - - SW 1036,2 20
25.09.2018 08:00:00 3,2 1,6 7 4 - - SW 1035,6 20
25.09.2018 07:00:00 3,4 1,7 4 2 - - W 1035,5 15
25.09.2018 06:00:00 3,7 2,2 7 4 - - WSW 1034,8 12
25.09.2018 05:00:00 2,7 1,4 11 6 - - W 1034,5 12
25.09.2018 04:00:00 2,9 1,3 11 6 - - W 1034,0 14
25.09.2018 03:00:00 4,1 1,8 11 6 - - W 1033,7 13
25.09.2018 02:00:00 3,8 2,0 7 4 - - WNW 1033,3 14
25.09.2018 01:00:00 3,6 1,9 11 6 - - WNW 1033,1 14
25.09.2018 00:00:00 3,5 1,4 7 4 - - WNW 1032,5 13
24.09.2018 23:00:00 5,7 2,7 11 6 - - WNW 1031,8 13
24.09.2018 22:00:00 7,0 3,0 18 10 - - NW 1031,0 12
24.09.2018 21:00:00 7,4 2,6 22 12 - - WNW 1030,0 12
24.09.2018 20:00:00 7,6 3,7 22 12 - - WNW 1029,2 12
24.09.2018 19:00:00 8,0 3,0 18 10 68 37 WNW 1028,8 13
24.09.2018 18:00:00 9,3 2,9 36 19 76 41 NNW 1028,2 10
24.09.2018 17:00:00 11,4 3,4 36 19 - - NW 1027,6 12
24.09.2018 16:00:00 10,9 3,3 32 18 50 27 NW 1027,3 25
24.09.2018 15:00:00 9,6 5,2 25 14 68 37 NNW 1027,1 25
24.09.2018 14:00:00 11,3 4,9 25 14 - - WNW 1026,4 25
24.09.2018 13:00:00 9,5 6,7 29 16 68 37 WNW 1025,8 9
24.09.2018 12:00:00 8,8 3,8 29 16 47 25 WNW 1025,3 25
24.09.2018 11:00:00 11,0 3,3 32 18 - - NW 1024,3 40
24.09.2018 10:00:00 10,2 3,0 29 16 50 27 WNW 1023,6 35
24.09.2018 09:00:00 9,4 4,1 25 14 - - NW 1022,4 35
24.09.2018 08:00:00 8,6 4,1 22 12 - - WNW 1021,6 30
24.09.2018 07:00:00 7,7 4,7 18 10 - - WNW 1021,0 25
24.09.2018 06:00:00 8,1 4,0 22 12 50 27 NW 1019,9 25
24.09.2018 05:00:00 8,7 4,6 25 14 - - WNW 1019,2 11
24.09.2018 04:00:00 8,0 3,8 22 12 - - WNW 1018,3 12
24.09.2018 03:00:00 8,8 4,0 29 16 47 25 NW 1017,4 13
24.09.2018 02:00:00 8,1 4,5 18 10 - - WNW 1016,7 11
24.09.2018 01:00:00 8,5 4,6 22 12 - - WNW 1015,8 12
24.09.2018 00:00:00 7,7 4,5 14 8 - - WNW 1015,1 12
23.09.2018 23:00:00 7,7 5,0 14 8 - - WNW 1014,2 13
23.09.2018 22:00:00 7,6 5,0 11 6 - - WNW 1013,2 12
23.09.2018 21:00:00 9,0 5,1 18 10 - - NW 1012,1 12
23.09.2018 20:00:00 9,2 5,0 14 8 - - NW 1011,1 12
23.09.2018 19:00:00 11,0 6,3 11 6 - - WNW 1010,1 11
23.09.2018 18:00:00 11,4 6,4 14 8 - - NW 1010,0 11
23.09.2018 17:00:00 11,6 7,0 11 6 - - WNW 1009,9 11
23.09.2018 16:00:00 11,3 7,7 14 8 - - WNW 1009,6 11
23.09.2018 15:00:00 12,5 6,8 11 6 - - NW 1010,6 12
23.09.2018 14:00:00 12,5 7,0 11 6 - - NNW 1010,7 12
23.09.2018 13:00:00 13,0 7,4 11 6 - - WNW 1011,1 11
23.09.2018 12:00:00 12,5 8,6 11 6 - - W 1011,8 11
23.09.2018 11:00:00 11,1 8,4 11 6 - - SW 1012,2 11
23.09.2018 10:00:00 9,9 8,0 11 6 - - W 1012,6 7
23.09.2018 09:00:00 9,6 7,9 7 4 - - SW 1012,5 9
23.09.2018 08:00:00 8,5 7,4 7 4 - - S 1012,3 11
23.09.2018 07:00:00 8,2 7,0 7 4 - - S 1012,3 10
23.09.2018 06:00:00 7,6 6,5 4 2 - - N 1012,5 12
23.09.2018 05:00:00 8,0 6,5 11 6 - - S 1012,8 10
23.09.2018 04:00:00 9,2 7,0 11 6 - - WSW 1013,2 13
23.09.2018 03:00:00 7,7 6,1 11 6 - - SW 1013,5 9
23.09.2018 02:00:00 7,4 5,4 4 2 - - WSW 1013,6 13
23.09.2018 01:00:00 9,5 6,0 14 8 - - SW 1013,5 13
23.09.2018 00:00:00 10,2 6,9 18 10 - - WSW 1013,5 10
22.09.2018 23:00:00 10,1 6,4 14 8 - - W 1013,5 12
22.09.2018 22:00:00 9,4 5,3 14 8 - - WSW 1013,5 14
22.09.2018 21:00:00 10,0 6,1 18 10 - - WSW 1013,2 11
22.09.2018 20:00:00 11,1 5,2 22 12 - - W 1012,8 13
22.09.2018 19:00:00 12,1 6,0 25 14 58 31 W 1012,7 12
22.09.2018 18:00:00 13,6 5,4 36 19 54 29 W 1012,6 10
22.09.2018 17:00:00 14,4 4,8 40 21 - - W 1012,6 18
22.09.2018 16:00:00 14,4 4,5 40 21 61 33 W 1012,9 18
22.09.2018 15:00:00 14,5 5,7 32 18 58 31 W 1012,7 18
22.09.2018 14:00:00 14,9 6,0 43 23 - - W 1012,5 15
22.09.2018 13:00:00 14,2 7,1 40 21 54 29 W 1012,3 15
22.09.2018 12:00:00 11,4 9,0 40 21 58 31 WSW 1012,6 12
22.09.2018 11:00:00 13,8 8,2 29 16 - - WSW 1012,0 12
22.09.2018 10:00:00 10,8 8,0 18 10 47 25 W 1012,4 13
22.09.2018 09:00:00 10,2 7,3 14 8 - - SW 1012,1 11
22.09.2018 08:00:00 8,5 6,6 11 6 - - SSW 1011,7 10
22.09.2018 07:00:00 8,6 6,5 14 8 - - SW 1011,2 10
22.09.2018 06:00:00 8,1 6,3 11 6 - - SW 1010,7 9
22.09.2018 05:00:00 9,4 7,4 14 8 - - SSW 1010,0 9
22.09.2018 04:00:00 9,8 7,9 22 12 - - WSW 1009,2 7
22.09.2018 03:00:00 10,6 8,8 25 14 - - SW 1008,3 2,7
22.09.2018 02:00:00 10,0 8,9 25 14 - - WSW 1007,7 2,1
22.09.2018 01:00:00 10,4 8,1 29 16 47 25 WSW 1007,1 2,7
22.09.2018 00:00:00 10,3 8,7 25 14 54 29 SW 1006,4 7
21.09.2018 23:00:00 8,9 7,0 25 14 - - SW 1006,1 5
21.09.2018 22:00:00 10,0 7,4 40 21 54 29 SW 1005,1 6
21.09.2018 21:00:00 10,1 6,4 32 18 61 33 SW 1004,9 13
21.09.2018 20:00:00 11,6 4,9 36 19 - - WSW 1003,9 11
21.09.2018 19:00:00 10,9 6,0 47 25 72 39 WSW 1003,6 9
21.09.2018 18:00:00 12,3 7,4 36 19 61 33 W 1003,0 3,7
21.09.2018 17:00:00 12,9 8,4 36 19 - - WSW 1002,3 11
21.09.2018 16:00:00 15,0 8,2 40 21 72 39 W 1001,4 12
21.09.2018 15:00:00 14,9 9,0 40 21 76 41 W 1001,2 12
21.09.2018 14:00:00 15,3 10,4 40 21 - - W 1000,3 9
21.09.2018 13:00:00 14,7 12,1 29 16 90 49 WSW 999,5 6
21.09.2018 12:00:00 15,8 14,3 36 19 72 39 SW 998,3 2,0
21.09.2018 11:00:00 19,1 12,5 36 19 - - SSW 996,9 12
21.09.2018 10:00:00 20,3 12,2 32 18 47 25 SSW 997,2 18
21.09.2018 09:00:00 19,3 11,9 25 14 - - S 997,9 18
21.09.2018 08:00:00 18,4 11,1 25 14 - - S 999,3 15
21.09.2018 07:00:00 18,3 10,9 29 16 - - S 1000,3 15
21.09.2018 06:00:00 18,2 11,0 25 14 - - S 1001,6 15
21.09.2018 05:00:00 16,7 11,0 18 10 - - S 1003,5 13
21.09.2018 04:00:00 16,6 11,1 14 8 - - SSE 1004,6 14
21.09.2018 03:00:00 16,8 11,5 18 10 - - SSE 1005,5 14
21.09.2018 02:00:00 16,7 11,9 14 8 - - SSE 1006,7 13
21.09.2018 01:00:00 16,6 12,2 14 8 - - SSE 1007,6 14
21.09.2018 00:00:00 17,1 12,7 18 10 - - SSE 1008,6 14
20.09.2018 23:00:00 16,4 13,2 11 6 - - SSE 1009,7 13
20.09.2018 22:00:00 17,3 13,8 11 6 - - S 1010,5 15
20.09.2018 21:00:00 17,8 14,5 7 4 - - SSE 1011,1 15
20.09.2018 20:00:00 18,6 14,2 11 6 - - SW 1011,5 15
20.09.2018 19:00:00 19,4 14,4 14 8 - - WSW 1011,9 20
20.09.2018 18:00:00 20,6 14,3 32 18 - - WSW 1012,1 25
20.09.2018 17:00:00 21,0 14,2 25 14 - - SW 1012,1 25
20.09.2018 16:00:00 21,2 14,3 22 12 - - SW 1012,3 25
20.09.2018 15:00:00 20,4 13,3 29 16 47 25 SW 1013,1 25
20.09.2018 14:00:00 20,3 14,0 29 16 - - SW 1013,4 20
20.09.2018 13:00:00 20,0 14,0 29 16 47 25 SW 1013,4 14
20.09.2018 12:00:00 19,2 14,1 32 18 47 25 WSW 1013,7 13
20.09.2018 11:00:00 18,9 14,4 25 14 - - SW 1014,1 13
20.09.2018 10:00:00 17,9 14,0 25 14 - - SW 1013,8 13
20.09.2018 09:00:00 17,7 13,9 25 14 - - SW 1013,9 15
20.09.2018 08:00:00 17,1 13,6 18 10 - - SSW 1013,7 15
20.09.2018 07:00:00 17,2 13,7 18 10 - - SW 1013,8 12
20.09.2018 06:00:00 17,5 13,7 18 10 - - SW 1013,7 10
20.09.2018 05:00:00 17,5 13,6 18 10 - - SW 1013,6 12
20.09.2018 04:00:00 17,6 13,5 22 12 - - SW 1013,7 14
20.09.2018 03:00:00 17,6 13,4 25 14 - - SW 1013,6 11
20.09.2018 02:00:00 18,1 13,4 25 14 - - WSW 1013,7 12
20.09.2018 01:00:00 18,2 13,1 25 14 47 25 SW 1013,8 12
20.09.2018 00:00:00 18,3 12,8 22 12 - - SW 1014,0 13
19.09.2018 23:00:00 18,6 13,0 18 10 - - SW 1014,1 12
19.09.2018 22:00:00 16,8 13,6 11 6 - - SSW 1014,3 11
19.09.2018 21:00:00 16,7 13,6 11 6 - - SW 1014,2 18
19.09.2018 20:00:00 18,1 14,1 14 8 - - SW 1013,9 20
19.09.2018 19:00:00 20,1 14,9 14 8 - - W 1013,7 20
19.09.2018 18:00:00 21,6 14,9 32 18 47 25 W 1013,1 20
19.09.2018 17:00:00 23,7 13,7 25 14 - - SW 1012,7 20
19.09.2018 16:00:00 24,0 13,9 25 14 - - SSW 1013,0 22
19.09.2018 15:00:00 22,9 14,2 25 14 - - SSW 1013,8 22
19.09.2018 14:00:00 21,9 14,3 25 14 - - SW 1014,4 22
19.09.2018 13:00:00 21,1 14,1 22 12 - - SSW 1014,7 25
19.09.2018 12:00:00 20,7 14,3 22 12 - - SW 1015,4 25
19.09.2018 11:00:00 18,6 14,1 22 12 - - SW 1015,1 20
19.09.2018 10:00:00 16,5 13,7 22 12 - - SW 1015,3 15
19.09.2018 09:00:00 15,2 13,5 18 10 - - S 1014,7 10

tt = Température de l'air
td = dewpoint
ff = Vitesse du vent
fx = gusts
dd = Direction du vent
ppp = reduced air pressure
vv = visibility

stations d'obs. à proximité